Location: Croagnes
(43.9363°N, 5.3265°E)
Time: 22:04:59
(UTC+00:00)

Meteor 1-16 Rocket - Pass Details

Date: 28 September 2020
Orbit: 790 x 908 km, 81.2° (Epoch: 22 October)

Event Time Altitude Azimuth Distance (km) Brightness Sun altitude
Exits shadow 21:48:39 21° 321° (NW) 1,933 6.5 -43.0°
Drops below altitude 10° 21:51:25 10° 346° (NNW) 2,575 7.3 -43.2°
Sets 21:54:22 0° 0° (N) 3,504 8.0 -43.5°
